Marshfield, WI

8:22 AM CDT on March 24, 2017 (GMT -0500)
Marshfield Municipal

Weather History for KMFI - December, 2012

Change the Weather History Date:

Thursday, December 27, 2012

  Actual Average Record
Temperature  
Mean Temperature 18 °F -  
Max Temperature 19 °F 24 °F 49 °F (1936)
Min Temperature 15 °F 5 °F -26 °F (1933)
Degree Days  
Heating Degree Days 48    
Moisture  
Dew Point 12 °F    
Average Humidity 75    
Maximum Humidity 81    
Minimum Humidity 68    
Precipitation  
Precipitation 0.00 in - - ()
Sea Level Pressure  
Sea Level Pressure 30.23 in    
Wind  
Wind Speed 5 mph (NE)    
Max Wind Speed 9 mph    
Max Gust Speed -    
Visibility 10 miles    
Events Snow    
Averages and records for this station are not official NWS values.
T = Trace of Precipitation, MM = Missing Value Source: NWS Daily Summary

Daily Weather History Graph

Daily Weather History Graph

Search for Another Location

Airport or City:

Trip Planner

Search our weather history database for the weather conditions in past years. The results will help you decide how hot, cold, wet, or windy it might be!

Date:

Astronomy

Dec. 27, 2012 Rise Set
Actual Time 7:37 AM CST 4:27 PM CST
Civil Twilight 7:03 AM CST 5:00 PM CST
Nautical Twilight 6:26 AM CST 5:37 PM CST
Astronomical Twilight 5:51 AM CST 6:13 PM CST
Moon 4:12 PM CST (12/27) 6:46 AM CST (12/27)
Length of Visible Light 9h 57m
Length of Day
8h 50m
Full, 100% of the Moon is Illuminated
Dec 27
Full
Dec 28
Full
Jan 4
Last Quarter
Jan 11
New
Jan 18
First Quarter

Hourly Weather History & Observations

Time (CST) Temp. Windchill Dew Point Humidity Pressure Visibility Wind Dir Wind Speed Gust Speed Precip Events Conditions
12:54 AM 17.1 °F 10.0 °F 12.0 °F 81% 30.25 in 10.0 mi North 4.6 mph - N/A   Overcast
1:54 AM 18.0 °F 11.1 °F 12.9 °F 81% 30.25 in 10.0 mi NNE 4.6 mph - N/A   Overcast
2:54 AM 18.0 °F 8.7 °F 12.9 °F 81% 30.26 in 10.0 mi NNE 6.9 mph - N/A   Overcast
3:54 AM 19.0 °F 13.9 °F 14.0 °F 81% 30.27 in 10.0 mi NNE 3.5 mph - N/A   Overcast
4:54 AM 19.0 °F 12.3 °F 14.0 °F 81% 30.27 in 10.0 mi North 4.6 mph - N/A   Overcast
5:54 AM 19.0 °F 12.3 °F 12.9 °F 77% 30.27 in 10.0 mi NNE 4.6 mph - N/A   Overcast
6:54 AM 19.0 °F 9.0 °F 12.9 °F 77% 30.28 in 10.0 mi NNE 8.1 mph - N/A   Overcast
7:54 AM 19.0 °F 9.0 °F 14.0 °F 81% 30.28 in 5.0 mi NE 8.1 mph - 0.00 in Snow Light Snow
8:54 AM 19.0 °F 11.1 °F 14.0 °F 81% 30.29 in 10.0 mi ENE 5.8 mph - 0.00 in   Overcast
9:54 AM 19.0 °F 8.2 °F 12.0 °F 74% 30.29 in 10.0 mi ENE 9.2 mph - N/A   Overcast
10:11 AM 19.4 °F 10.4 °F 12.2 °F 74% 30.21 in 10.0 mi East 6.9 mph - N/A   Scattered Clouds
10:54 AM 19.9 °F 11.1 °F 12.0 °F 71% 30.28 in 10.0 mi East 6.9 mph - N/A   Scattered Clouds
11:01 AM 19.4 °F 9.5 °F 12.2 °F 74% 30.20 in 10.0 mi East 8.1 mph - N/A   Mostly Cloudy
11:54 AM 19.9 °F 12.1 °F 12.0 °F 71% 30.26 in 8.0 mi ENE 5.8 mph - N/A   Overcast
12:54 PM 19.9 °F 12.1 °F 12.9 °F 74% 30.24 in 10.0 mi NE 5.8 mph - N/A   Overcast
1:54 PM 19.9 °F 14.9 °F 12.0 °F 71% 30.24 in 9.0 mi NE 3.5 mph - 0.00 in   Overcast
2:54 PM 19.0 °F 10.0 °F 12.0 °F 74% 30.24 in 10.0 mi ENE 6.9 mph - N/A   Overcast
3:54 PM 19.9 °F 14.9 °F 10.9 °F 68% 30.24 in 10.0 mi North 3.5 mph - N/A   Overcast
4:54 PM 19.0 °F 12.3 °F 10.9 °F 71% 30.24 in 10.0 mi NNE 4.6 mph - N/A   Overcast
5:24 PM 19.4 °F 8.6 °F 10.4 °F 68% 30.13 in 10.0 mi ENE 9.2 mph - N/A   Overcast
5:54 PM 19.0 °F 12.3 °F 10.9 °F 71% 30.22 in 10.0 mi NNE 4.6 mph - N/A   Overcast
6:12 PM 19.4 °F - 10.4 °F 68% 30.15 in 10.0 mi Calm Calm - N/A   Overcast
6:54 PM 19.0 °F - 12.0 °F 74% 30.22 in 10.0 mi Calm Calm - N/A   Overcast
7:54 PM 18.0 °F 11.1 °F 10.9 °F 74% 30.20 in 10.0 mi NE 4.6 mph - N/A   Overcast
8:54 PM 18.0 °F 9.8 °F 10.9 °F 74% 30.19 in 10.0 mi ENE 5.8 mph - N/A   Overcast
9:54 PM 16.0 °F - 10.0 °F 77% 30.20 in 10.0 mi Calm Calm - N/A   Overcast
10:54 PM 16.0 °F - 10.0 °F 77% 30.21 in 10.0 mi Calm Calm - N/A   Overcast
11:54 PM 15.1 °F 9.4 °F 10.0 °F 80% 30.19 in 10.0 mi ENE 3.5 mph - N/A   Overcast